• En Colombia
  • Lista de países
  • Para 7 días
  • Temperatura del agua
  • El tiempo en el mapa
  • Informadores
  • user-avatar
    Iniciar sesión

    Tiempo cada hora Newcastle

    Hoy, 27 Enero, Lunes

    Tiempo Temperatura Precipitaciones Viento Presión Humedad
    00:00 +25°C° 0.1 mm 2 mps 758 mmHg 93%
    01:00 +25°C° 0.1 mm 2 mps 758 mmHg 93%
    02:00 +24°C° 0.6 mm 2 mps 758 mmHg 94%
    03:00 +24°C° 0.6 mm 2 mps 758 mmHg 96%
    04:00 +24°C° 0 mm 2 mps 758 mmHg 97%
    05:00 +24°C° 0 mm 2 mps 759 mmHg 96%
    06:00 +25°C° 0 mm 2 mps 759 mmHg 95%
    07:00 +26°C° 0 mm 2 mps 759 mmHg 93%
    08:00 +26°C° 0 mm 3 mps 759 mmHg 90%
    09:00 +27°C° 0 mm 3 mps 759 mmHg 87%
    10:00 +28°C° 0 mm 2 mps 759 mmHg 84%
    11:00 +29°C° 0 mm 2 mps 759 mmHg 79%
    12:00 +29°C° 0 mm 2 mps 759 mmHg 74%
    13:00 +30°C° 0 mm 2 mps 758 mmHg 70%
    14:00 +30°C° 0 mm 3 mps 758 mmHg 68%
    15:00 +32°C° 0 mm 4 mps 757 mmHg 67%
    16:00 +32°C° 0 mm 5 mps 757 mmHg 65%
    17:00 +30°C° 0 mm 5 mps 757 mmHg 70%
    18:00 +29°C° 0 mm 5 mps 758 mmHg 74%
    19:00 +27°C° 0 mm 6 mps 758 mmHg 78%
    20:00 +26°C° 0 mm 5 mps 758 mmHg 81%
    21:00 +26°C° 0 mm 4 mps 759 mmHg 83%
    22:00 +25°C° 0 mm 3 mps 759 mmHg 85%
    23:00 +24°C° 0 mm 3 mps 759 mmHg 87%

    Mañana, 28 Enero, Martes

    Tiempo Temperatura Precipitaciones Viento Presión Humedad
    00:00 +24°C° 0 mm 3 mps 758 mmHg 88%
    01:00 +22°C° 0 mm 3 mps 758 mmHg 90%
    02:00 +23°C° 0 mm 2 mps 758 mmHg 91%
    03:00 +23°C° 0 mm 2 mps 758 mmHg 93%
    04:00 +22°C° 0 mm 1 mps 758 mmHg 94%
    05:00 +24°C° 0 mm 1 mps 758 mmHg 89%
    06:00 +25°C° 0 mm 1 mps 758 mmHg 84%
    07:00 +26°C° 0 mm 1 mps 759 mmHg 78%
    08:00 +29°C° 0 mm 1 mps 759 mmHg 70%
    09:00 +31°C° 0 mm 2 mps 759 mmHg 62%
    10:00 +35°C° 0 mm 2 mps 759 mmHg 54%
    11:00 +36°C° 0 mm 3 mps 758 mmHg 50%
    12:00 +37°C° 0 mm 3 mps 757 mmHg 47%
    13:00 +38°C° 0 mm 4 mps 757 mmHg 43%
    14:00 +36°C° 0.5 mm 4 mps 756 mmHg 50%
    15:00 +34°C° 0.5 mm 4 mps 756 mmHg 58%
    16:00 +33°C° 0.5 mm 4 mps 755 mmHg 66%
    17:00 +30°C° 2.6 mm 4 mps 756 mmHg 75%
    18:00 +27°C° 2.6 mm 4 mps 757 mmHg 85%
    19:00 +25°C° 2.6 mm 5 mps 758 mmHg 95%
    20:00 +25°C° 0.5 mm 5 mps 758 mmHg 96%
    21:00 +25°C° 0.5 mm 5 mps 759 mmHg 96%
    22:00 +25°C° 0.5 mm 5 mps 759 mmHg 96%
    23:00 +25°C° 0.1 mm 5 mps 759 mmHg 96%

    Pasado mañana, 29 Enero, Miércoles

    Tiempo Temperatura Precipitaciones Viento Presión Humedad
    00:00 +25°C° 0.1 mm 5 mps 759 mmHg 96%
    01:00 +24°C° 0.1 mm 6 mps 759 mmHg 95%
    02:00 +23°C° 0.1 mm 6 mps 760 mmHg 95%
    03:00 +23°C° 0.1 mm 6 mps 760 mmHg 94%
    04:00 +22°C° 0.1 mm 6 mps 760 mmHg 93%
    05:00 +23°C° 0 mm 6 mps 760 mmHg 91%
    06:00 +23°C° 0 mm 6 mps 761 mmHg 90%
    07:00 +23°C° 0 mm 5 mps 761 mmHg 88%
    08:00 +25°C° 0 mm 5 mps 761 mmHg 84%
    09:00 +25°C° 0 mm 5 mps 761 mmHg 81%
    10:00 +26°C° 0 mm 5 mps 762 mmHg 77%
    11:00 +26°C° 0 mm 5 mps 761 mmHg 76%
    12:00 +26°C° 0 mm 4 mps 761 mmHg 75%
    13:00 +27°C° 0 mm 4 mps 760 mmHg 74%
    14:00 +27°C° 0 mm 4 mps 760 mmHg 74%
    15:00 +27°C° 0 mm 4 mps 760 mmHg 73%
    16:00 +27°C° 0 mm 4 mps 760 mmHg 72%
    17:00 +26°C° 0 mm 4 mps 760 mmHg 77%
    18:00 +25°C° 0 mm 3 mps 761 mmHg 82%
    19:00 +25°C° 0 mm 3 mps 761 mmHg 87%
    20:00 +25°C° 0 mm 2 mps 761 mmHg 89%
    21:00 +24°C° 0 mm 2 mps 762 mmHg 90%
    22:00 +24°C° 0 mm 2 mps 762 mmHg 92%
    23:00 +24°C° 0 mm 2 mps 762 mmHg 94%

    30 Enero, Jueves

    Tiempo Temperatura Precipitaciones Viento Presión Humedad
    00:00 +24°C° 0 mm 2 mps 762 mmHg 95%
    01:00 +23°C° 0 mm 2 mps 761 mmHg 97%
    02:00 +23°C° 0 mm 2 mps 761 mmHg 97%
    03:00 +23°C° 0 mm 2 mps 761 mmHg 97%
    04:00 +23°C° 0 mm 2 mps 761 mmHg 97%
    05:00 +24°C° 0 mm 2 mps 762 mmHg 95%
    06:00 +24°C° 0 mm 2 mps 762 mmHg 93%
    07:00 +25°C° 0 mm 2 mps 762 mmHg 91%
    08:00 +26°C° 0.1 mm 2 mps 762 mmHg 83%
    09:00 +28°C° 0.1 mm 2 mps 762 mmHg 74%
    10:00 +30°C° 0.1 mm 2 mps 762 mmHg 65%
    11:00 +30°C° 0 mm 3 mps 762 mmHg 64%
    12:00 +31°C° 0 mm 3 mps 761 mmHg 62%
    13:00 +31°C° 0 mm 3 mps 761 mmHg 61%
    14:00 +32°C° 0 mm 4 mps 760 mmHg 62%
    15:00 +32°C° 0 mm 4 mps 760 mmHg 64%
    16:00 +32°C° 0 mm 4 mps 759 mmHg 65%
    17:00 +29°C° 0 mm 4 mps 760 mmHg 71%
    18:00 +28°C° 0 mm 4 mps 760 mmHg 77%
    19:00 +26°C° 0 mm 4 mps 760 mmHg 82%
    20:00 +26°C° 0 mm 4 mps 761 mmHg 84%
    21:00 +25°C° 0 mm 4 mps 761 mmHg 86%
    22:00 +23°C° 0 mm 4 mps 761 mmHg 88%
    23:00 +23°C° 0 mm 4 mps 761 mmHg 90%

    31 Enero, Viernes

    Tiempo Temperatura Precipitaciones Viento Presión Humedad
    00:00 +22°C° 0 mm 4 mps 761 mmHg 93%
    01:00 +22°C° 0 mm 4 mps 760 mmHg 95%
    02:00 +22°C° 0 mm 4 mps 760 mmHg 96%
    03:00 +21°C° 0 mm 3 mps 760 mmHg 96%
    04:00 +21°C° 0 mm 3 mps 760 mmHg 97%
    05:00 +22°C° 0 mm 3 mps 761 mmHg 93%
    06:00 +24°C° 0 mm 3 mps 761 mmHg 89%
    07:00 +25°C° 0 mm 3 mps 761 mmHg 86%
    08:00 +28°C° 0 mm 3 mps 761 mmHg 75%
    09:00 +30°C° 0 mm 3 mps 761 mmHg 64%
    10:00 +34°C° 0 mm 3 mps 761 mmHg 53%
    11:00 +36°C° 0 mm 4 mps 761 mmHg 48%
    12:00 +37°C° 0 mm 5 mps 760 mmHg 43%
    13:00 +40°C° 0 mm 6 mps 760 mmHg 38%
    14:00 +39°C° 0 mm 6 mps 759 mmHg 40%
    15:00 +38°C° 0 mm 7 mps 759 mmHg 41%
    16:00 +36°C° 0 mm 7 mps 759 mmHg 43%
    17:00 +34°C° 0 mm 7 mps 759 mmHg 51%
    18:00 +32°C° 0 mm 7 mps 759 mmHg 60%
    19:00 +28°C° 0 mm 6 mps 760 mmHg 68%
    20:00 +27°C° 0 mm 6 mps 760 mmHg 71%
    21:00 +26°C° 0 mm 5 mps 760 mmHg 74%
    22:00 +25°C° 0 mm 4 mps 760 mmHg 78%
    23:00 +25°C° 0 mm 4 mps 760 mmHg 80%

    1 Febrero, Sábado

    Tiempo Temperatura Precipitaciones Viento Presión Humedad
    00:00 +23°C° 0 mm 4 mps 760 mmHg 83%
    01:00 +22°C° 0 mm 3 mps 759 mmHg 85%
    02:00 +22°C° 0 mm 3 mps 759 mmHg 86%
    03:00 +22°C° 0 mm 3 mps 759 mmHg 86%
    04:00 +22°C° 0 mm 3 mps 759 mmHg 86%
    05:00 +24°C° 0 mm 3 mps 759 mmHg 81%
    06:00 +26°C° 0 mm 3 mps 760 mmHg 76%
    07:00 +27°C° 0 mm 3 mps 760 mmHg 71%
    08:00 +30°C° 0 mm 3 mps 760 mmHg 61%
    09:00 +34°C° 0 mm 4 mps 760 mmHg 51%
    10:00 +37°C° 0 mm 4 mps 760 mmHg 41%
    11:00 +39°C° 0 mm 5 mps 759 mmHg 38%
    12:00 +40°C° 0 mm 5 mps 758 mmHg 35%
    13:00 +42°C° 0 mm 6 mps 758 mmHg 33%
    14:00 +41°C° 0 mm 6 mps 757 mmHg 32%
    15:00 +41°C° 0 mm 6 mps 757 mmHg 32%
    16:00 +41°C° 0 mm 7 mps 757 mmHg 32%
    17:00 +39°C° 0 mm 6 mps 757 mmHg 40%
    18:00 +35°C° 0 mm 6 mps 757 mmHg 47%
    19:00 +33°C° 0 mm 5 mps 757 mmHg 55%
    20:00 +32°C° 0 mm 5 mps 757 mmHg 58%
    21:00 +30°C° 0 mm 4 mps 758 mmHg 61%
    22:00 +29°C° 0 mm 4 mps 758 mmHg 64%
    23:00 +28°C° 0 mm 3 mps 758 mmHg 65%
    Mostrar más